Tracking 19490 objects as of 23-Jan-2019
HD Live streaming from Space Station
objects crossing your sky now

COSMOS 1156

Track COSMOS 1156 now!
10-day predictions
COSMOS 1156 is classified as:


NORAD ID: 11691
Int'l Code: 1980-012A
Perigee: 1,405.6 km
Apogee: 1,480.6 km
Inclination: 74.0 °
Period: 114.6 minutes
Semi major axis: 7814 km
RCS: 0.7253 m2 (medium)
Launch date: February 11, 1980
Source: Commonwealth of Independent States (former USSR) (CIS)
Launch site: PLESETSK MISSILE AND SPACE COMPLEX (PKMTR)
aabbcc
Your satellite tracking list
Your tracking list is empty




NASA's NSSDC Master Catalog

Two Line Element Set (TLE):
1 11691U 80012A   19022.58121942 +.00000006 +00000-0 +13350-3 0  9996
2 11691 074.0208 070.1455 0047937 065.1625 087.2098 12.56851951786815
Source of the keplerian elements: AFSPC